Погода в Соловьевке

Россия / Сахалинская область     46°43′20″N   142°44′51″E
темп.,
°C
ветер,
м/с
пор.,
м/с
влажн.,
%
обл.,
%
осадки,
мм/ч
давл.,
гПа
погр.,
м
24 июня, чт
чт2423:00+13ююз23807 0.0 101135
02:00+12юз11775 0.0 101111
05:00+11юз11804 0.0 101013
08:00+15з12730 0.0 1011138
11:00+20зюз356812 0.0 1011643
14:00+21ююз576112 0.0 1010763
17:00+21юз576348 0.0 1010735
20:00+18юз378054 0.0 1010214
25 июня, пт
пт2523:00+14юз24959 0.0 101182
02:00+14юз239522 0.0 1011107
05:00+13ююз229816 0.0 101134
08:00+14юз3894100 0.0 1011476
11:00+18юз597548 0.0 1010861
14:00+20юз79648 0.0 1009993
17:00+19юз710665 0.0 1008846
20:00+16юз511793 0.0 1008634
26 июня, сб
сб2623:00+14ююз399158 0.0 1008325
02:00+13ююз389180 0.0 1007256
05:00+13зюз259299 0.0 1007151
08:00+15з1193100 0.9 1009283
11:00+12св3497100 1.3 1011206
14:00+12всв3589100 0.1 1012286
17:00+14в4575100 0.1 1013463
20:00+12в468098 0.0 1014290
27 июня, вс
вс2723:00+10в248296 0.0 1014190
02:00+9вюв1282100 0.0 1014175
05:00+10ю1282100 0.0 1014148
08:00+11ююз2387100 0.0 1013284
11:00+12ю2489100 0.0 1012329
14:00+15ююз238437 0.0 1011317
17:00+17ююз347981 0.0 1009357
20:00+16ю248687 0.0 1009189
28 июня, пн
пн2823:00+13юв009583 0.0 100910
02:00+12ююв119733 0.0 100910
05:00+12всв119748 0.0 100913
08:00+13всв119790 0.0 101040
11:00+19с12705 0.1 1009541
14:00+21ссз026215 0.0 1008905
17:00+19св34633 0.0 1008580
20:00+14ссв56785 0.0 1009371